GFSFLT2_850_dewp_153.txt.gz
Dewpoint
13 13 11 9 7 6 5 4 3 5 7 8 9 9 8 8 7 8 8 7 9 9 7 7 7 7 6 7 8 9 11 11
7 10 10 7 7 6 5 3 1 3 6 8 9 9 8 8 8 8 8 6 7 6 5 6 7 7 7 5 8 11 11 11
8 8 9 6 7 7 6 3 -1 -0 4 8 9 9 8 8 7 8 9 7 7 6 5 5 6 7 6 5 7 10 11 10
9 11 10 9 7 8 8 7 2 -3 -0 5 8 8 8 8 8 8 8 6 6 6 5 5 5 7 6 5 6 10 10 11
15 9 12 11 12 8 9 9 6 2 -2 2 6 7 7 8 9 8 8 7 6 6 5 4 5 6 7 6 7 11 11 11
8 14 13 11 11 12 12 14 12 6 2 -1 4 7 8 8 8 8 8 8 7 6 6 5 5 5 7 9 7 9 9 11
3 10 13 14 13 11 11 11 13 11 7 3 1 4 7 8 10 10 9 9 9 7 6 6 6 6 10 10 10 9 10 10
2 3 4 9 14 14 12 12 12 13 13 10 4 2 4 8 11 13 11 8 10 9 7 7 8 8 10 11 10 10 9 10
1 1 2 3 8 11 13 13 13 12 14 14 13 7 4 9 11 13 13 11 12 11 9 10 11 11 9 9 10 10 9 9
-0 0 1 2 2 3 7 9 11 13 12 14 14 14 12 10 11 13 13 13 13 13 10 11 11 12 11 10 10 10 10 9
-7 -8 -6 -5 -0 2 3 4 7 10 12 12 11 13 14 14 12 11 13 13 14 13 12 12 12 12 12 12 11 10 9 9
-7 -8 -8 -11 -10 -6 0 3 8 7 10 9 8 12 12 12 13 13 12 13 14 13 13 12 11 12 12 12 12 10 10 9
-5 -5 -6 -6 -6 -8 -9 -5 2 5 8 10 7 10 12 12 12 13 12 12 13 14 13 12 12 11 12 12 12 11 11 10
-4 -4 -4 -4 -5 -4 -3 -3 -5 1 6 8 8 12 11 11 12 13 11 12 12 13 12 12 12 11 11 12 12 11 11 11
-4 -3 -3 -3 -3 -4 -5 -3 -2 -4 -2 4 7 9 12 12 11 11 12 12 12 11 11 10 10 10 11 10 10 11 10 12
-4 -4 -3 -3 -3 -3 -2 -2 0 2 2 -1 1 6 9 10 12 11 10 11 11 11 11 10 10 11 10 11 10 9 11 11
-6 -6 -5 -2 -2 -2 -2 -2 -1 1 3 3 0 1 5 8 10 11 11 11 10 9 9 10 10 10 10 11 11 11 10 9
-6 -7 -8 -5 -2 -2 -2 -1 -1 -0 1 3 4 3 -1 4 8 10 11 8 7 8 8 9 10 9 9 11 12 12 11 10
-4 -7 -8 -6 -2 -2 -2 -2 -1 -0 1 2 4 4 5 -0 3 9 11 11 10 10 8 8 9 9 10 10 11 11 10 10
-5 -7 -7 -7 -3 -3 -3 -3 -2 -1 -0 1 2 3 5 6 7 4 10 11 10 9 9 7 8 10 10 11 11 9 7 6

GFSFLT2_850_dewp_156.txt.gz
Dewpoint
8 10 13 11 8 7 6 5 4 1 2 5 7 8 8 8 8 8 8 7 6 7 6 7 7 8 7 7 8 9 10 10
8 9 10 11 9 7 6 6 4 2 -0 3 7 8 8 8 7 7 8 7 6 6 6 6 7 7 7 6 6 7 10 10
16 14 11 11 10 8 7 7 7 6 3 2 5 7 8 8 8 7 8 7 5 6 5 5 6 7 7 5 6 9 9 9
16 16 16 14 11 9 8 8 8 8 6 4 1 5 7 7 7 8 7 8 6 5 5 5 5 6 6 4 6 9 8 10
13 15 15 15 15 13 11 7 7 9 8 7 7 4 5 7 8 8 8 8 7 5 5 4 4 4 6 5 6 8 9 9
6 9 13 14 14 15 15 14 11 9 8 9 8 7 5 4 7 8 8 8 8 6 5 5 4 5 6 6 6 9 10 10
1 3 7 10 13 14 14 15 14 14 13 11 8 8 8 7 5 7 8 9 9 8 7 6 5 5 6 8 7 7 9 9
-3 -1 -0 2 6 10 11 14 13 13 14 13 12 8 7 9 8 7 7 10 10 10 10 8 6 6 5 7 8 8 9 9
-6 -9 -8 -5 -1 1 5 9 12 13 13 14 14 13 13 10 9 10 7 8 13 12 11 12 8 7 7 7 9 9 9 9
-10 -10 -11 -13 -11 -6 -4 2 6 8 11 12 13 13 14 13 12 10 11 11 12 13 12 12 10 9 9 9 10 10 9 10
-15 -11 -10 -9 -9 -10 -12 -11 -1 7 9 11 12 13 13 13 13 13 12 12 13 14 13 12 12 11 11 10 9 11 10 10
-12 -11 -12 -11 -11 -10 -9 -11 -13 -5 6 7 11 12 12 13 13 13 12 12 12 13 13 12 13 11 11 12 10 10 10 10
-12 -12 -11 -12 -13 -12 -11 -10 -9 -10 -12 -3 5 10 11 12 12 12 13 13 12 11 11 11 11 13 12 11 10 11 11 10
-11 -11 -10 -9 -8 -8 -7 -7 -8 -7 -7 -8 -8 -2 7 9 10 10 13 13 13 11 11 12 10 12 12 12 11 12 12 12
-8 -8 -9 -9 -9 -8 -7 -7 -7 -8 -9 -8 -7 -5 -5 1 4 8 11 12 12 12 11 10 11 10 11 10 11 11 11 11
-8 -8 -8 -8 -8 -9 -7 -4 -4 -4 -5 -6 -6 -5 -2 -1 -2 0 4 8 12 12 13 11 10 11 11 10 11 10 10 10
-6 -7 -8 -9 -9 -8 -7 -4 -3 -3 -4 -4 -5 -4 -2 1 1 1 1 3 8 12 12 10 12 11 12 11 10 9 10 10
-5 -7 -8 -9 -9 -9 -7 -4 -3 -3 -3 -3 -3 -2 -2 1 3 2 3 2 2 9 11 11 10 11 11 10 9 11 11 11
-6 -7 -8 -9 -9 -8 -7 -4 -3 -3 -3 -3 -2 -1 -0 1 3 3 3 4 1 3 11 10 10 9 9 10 10 11 11 11
-7 -8 -8 -8 -8 -7 -5 -3 -4 -3 -4 -4 -3 -2 -1 1 2 3 4 4 4 1 7 10 11 10 9 8 8 9 9 10

GFSFLT2_850_dewp_159.txt.gz
Dewpoint
14 14 14 13 12 10 8 7 7 6 5 4 5 7 7 7 7 7 7 6 4 6 6 6 7 7 7 7 7 9 9 10
15 15 15 14 13 12 11 9 8 8 7 7 6 6 7 7 7 7 7 8 5 5 4 5 5 6 6 6 6 8 10 9
15 16 15 15 14 13 12 11 10 9 8 8 9 8 6 6 6 7 7 8 7 5 5 4 5 5 6 6 5 5 10 9
13 13 14 14 15 14 13 13 12 11 10 7 7 9 10 9 7 8 8 8 8 6 6 5 5 4 6 6 4 5 9 9
9 11 12 14 14 14 14 14 13 13 12 11 9 7 9 10 10 8 8 8 9 9 7 6 5 4 5 5 4 5 7 8
6 6 9 11 12 12 13 13 13 14 14 14 13 11 9 9 10 10 9 8 8 9 8 7 6 5 5 5 5 5 6 9
-3 -4 -3 1 3 6 10 11 12 12 12 13 14 14 13 10 9 10 11 10 9 9 9 8 7 6 6 6 6 5 6 9
-10 -11 -12 -13 -13 -8 -2 5 7 11 12 12 13 13 14 14 13 10 10 10 10 9 9 10 8 7 6 6 6 6 6 9
-15 -16 -15 -15 -16 -16 -15 -11 -4 4 8 10 11 12 13 13 13 13 13 10 10 11 12 12 12 12 8 7 7 9 7 7
-17 -18 -19 -18 -16 -14 -14 -13 -13 -11 -1 6 9 10 12 12 12 13 13 13 11 10 10 13 13 12 12 9 7 8 9 8
-17 -20 -20 -20 -19 -18 -17 -17 -14 -13 -12 -8 2 5 7 11 12 13 13 13 13 13 11 11 13 13 12 11 8 8 8 9
-20 -19 -18 -17 -17 -18 -18 -19 -19 -18 -14 -11 -11 -9 -4 0 8 11 12 13 13 13 13 12 12 11 11 11 10 10 9 10
-16 -15 -15 -15 -15 -14 -15 -15 -16 -18 -17 -14 -12 -10 -8 -8 -5 3 9 10 11 11 12 13 12 11 11 10 9 10 10 10
-11 -11 -12 -12 -12 -12 -12 -12 -13 -12 -14 -14 -13 -11 -9 -8 -7 -5 -2 5 8 10 10 12 13 12 11 10 10 9 9 10
-8 -9 -11 -12 -12 -12 -12 -12 -13 -14 -14 -12 -11 -10 -10 -7 -6 -5 -4 -2 1 4 7 10 11 13 11 10 10 10 9 9
-7 -8 -9 -10 -10 -10 -10 -9 -9 -9 -8 -9 -9 -8 -7 -7 -6 -5 -3 -1 -0 -0 2 8 10 11 12 12 11 10 9 10
-8 -9 -10 -10 -10 -9 -9 -9 -8 -9 -8 -6 -6 -6 -6 -5 -5 -5 -3 -0 1 1 1 1 4 9 11 12 12 11 11 10
-7 -9 -9 -9 -9 -9 -8 -7 -6 -5 -5 -5 -5 -5 -4 -4 -4 -4 -3 -0 1 2 2 3 2 3 11 12 12 12 10 10
-8 -9 -10 -10 -9 -9 -8 -8 -7 -5 -4 -4 -4 -4 -4 -4 -4 -2 -2 0 2 3 4 4 3 3 5 12 12 11 9 7
-10 -11 -11 -11 -10 -9 -9 -9 -8 -7 -5 -4 -5 -5 -5 -4 -3 -2 -2 0 1 2 3 4 5 5 4 10 11 9 9 10

GFSFLT2_850_dewp_162.txt.gz
Dewpoint
14 14 13 13 12 12 11 11 11 10 10 10 11 11 10 8 6 6 6 7 7 5 6 5 4 6 7 6 6 7 8 10
15 15 15 15 15 13 12 12 11 11 11 10 10 10 11 11 10 7 7 7 8 6 6 5 4 5 6 6 6 7 7 9
13 14 13 13 14 14 13 12 12 11 11 11 11 11 10 10 10 10 9 8 9 9 6 6 4 4 5 6 6 6 6 9
11 12 12 12 13 13 13 13 13 12 12 12 12 11 11 11 11 10 11 10 9 9 9 7 5 4 4 6 6 5 5 9
2 7 9 10 11 11 12 12 12 13 13 14 13 12 11 12 11 10 10 10 10 10 9 9 7 5 4 5 6 5 5 8
-6 -7 -3 -1 3 5 8 9 10 11 11 12 12 13 13 13 13 11 10 10 10 10 10 10 9 7 5 5 5 5 5 6
-13 -16 -17 -17 -16 -15 -11 -3 3 6 9 11 11 12 12 13 13 13 13 11 11 11 10 10 10 9 7 6 5 5 5 5
-16 -17 -18 -19 -20 -19 -17 -15 -14 -12 -4 3 7 9 11 12 13 13 12 13 13 12 11 10 10 10 10 8 6 6 5 5
-20 -21 -21 -21 -22 -22 -22 -21 -18 -15 -14 -14 -9 -1 5 7 9 12 13 13 13 13 13 11 10 11 11 10 8 7 7 6
-18 -20 -21 -22 -23 -24 -24 -24 -24 -22 -20 -17 -14 -12 -11 -5 0 4 9 12 13 13 12 13 12 11 10 11 11 10 7 7
-17 -19 -21 -23 -24 -24 -24 -25 -26 -25 -23 -22 -21 -18 -15 -12 -10 -7 -3 4 11 12 12 13 12 13 12 11 11 11 11 8
-15 -17 -19 -20 -21 -21 -21 -20 -21 -21 -20 -20 -19 -20 -18 -15 -13 -11 -9 -7 0 8 11 12 11 12 13 12 11 10 11 11
-14 -15 -16 -17 -17 -18 -19 -18 -16 -16 -14 -15 -15 -14 -15 -15 -13 -13 -11 -9 -8 -5 5 9 11 11 13 12 12 8 9 10
-11 -12 -13 -13 -13 -12 -12 -12 -13 -13 -13 -13 -12 -11 -10 -11 -11 -9 -9 -8 -8 -7 -5 -0 5 8 10 12 12 12 12 9
-9 -11 -11 -11 -11 -11 -12 -12 -12 -12 -13 -13 -12 -10 -9 -9 -9 -9 -7 -6 -6 -5 -5 -2 2 2 8 10 11 11 10 8
-10 -11 -11 -11 -11 -11 -11 -11 -10 -10 -9 -9 -9 -9 -8 -8 -8 -7 -6 -5 -4 -3 -0 -1 0 2 1 6 10 11 11 9
-10 -12 -12 -13 -12 -12 -11 -10 -9 -9 -9 -8 -7 -6 -6 -6 -5 -5 -5 -5 -3 -2 -0 1 1 2 3 2 7 9 10 11
-12 -13 -13 -14 -14 -13 -12 -11 -10 -10 -9 -9 -7 -6 -5 -5 -5 -5 -5 -4 -3 -2 -1 0 1 2 3 4 5 7 9 10
-12 -13 -13 -13 -13 -13 -12 -11 -11 -11 -10 -9 -8 -7 -6 -5 -5 -5 -5 -4 -3 -1 -1 -1 -0 1 1 3 4 6 7 9
-11 -12 -12 -12 -13 -13 -13 -13 -12 -11 -10 -9 -8 -7 -5 -5 -5 -5 -5 -4 -2 -2 -2 -1 -0 1 1 2 5 5 7 8

GFSFLT2_850_dewp_165.txt.gz
Dewpoint
14 14 14 14 14 12 11 11 10 10 10 11 11 11 12 11 10 9 10 9 9 8 6 6 4 4 5 6 7 6 7 8
14 14 14 14 14 14 13 12 11 11 11 11 10 10 11 11 11 11 10 10 9 10 8 7 6 5 5 6 7 7 7 7
12 12 12 13 13 13 13 13 13 12 12 11 11 11 11 11 11 11 11 10 10 9 10 9 7 6 5 5 6 6 6 6
9 10 10 10 10 10 10 11 12 12 12 12 12 12 11 11 11 11 11 11 11 10 9 9 9 7 6 5 5 6 6 5
-3 -3 -3 0 1 1 5 8 9 10 11 11 11 11 12 13 12 11 11 11 11 11 11 10 9 9 8 6 5 6 6 4
-14 -16 -18 -18 -17 -16 -14 -10 -3 2 7 9 11 11 11 11 12 11 12 12 11 11 11 11 10 9 10 8 6 5 5 5
-18 -19 -21 -21 -22 -22 -22 -22 -21 -18 -15 -10 -4 2 7 9 10 10 12 12 12 13 11 11 10 11 10 10 9 7 5 5
-19 -20 -20 -21 -21 -22 -23 -23 -24 -24 -24 -21 -17 -15 -13 -10 -1 5 8 10 11 12 13 12 11 11 11 10 10 9 7 5
-19 -19 -20 -22 -23 -24 -24 -25 -26 -26 -26 -26 -25 -23 -19 -16 -14 -12 -7 0 7 12 12 13 12 13 12 10 11 10 9 7
-17 -18 -19 -20 -22 -23 -23 -23 -23 -24 -25 -24 -23 -22 -21 -20 -19 -18 -15 -13 -8 -0 8 12 12 13 12 12 11 11 10 10
-17 -18 -19 -19 -19 -20 -20 -21 -21 -21 -20 -20 -21 -22 -19 -17 -16 -17 -17 -16 -14 -11 -7 3 10 11 11 12 11 12 11 11
-16 -17 -18 -19 -20 -20 -19 -18 -17 -17 -16 -16 -16 -16 -16 -16 -15 -14 -13 -14 -15 -14 -12 -9 -3 6 10 11 12 12 11 12
-15 -16 -17 -17 -18 -19 -19 -17 -15 -14 -14 -14 -14 -13 -12 -12 -13 -13 -12 -10 -11 -12 -11 -10 -11 -7 0 7 10 10 12 11
-13 -13 -13 -13 -13 -13 -13 -13 -13 -13 -13 -12 -12 -11 -11 -11 -10 -9 -9 -9 -10 -9 -9 -8 -5 -5 2 4 7 8 8 12
-12 -13 -14 -14 -14 -15 -15 -15 -14 -13 -12 -12 -11 -10 -9 -8 -7 -7 -7 -7 -7 -7 -6 -5 -0 -0 2 3 5 8 9 10
-13 -14 -14 -15 -15 -15 -15 -15 -15 -15 -15 -14 -13 -12 -10 -8 -7 -6 -6 -6 -5 -5 -5 -3 -1 0 1 2 3 4 5 8
-13 -14 -14 -15 -15 -15 -15 -15 -15 -15 -14 -14 -14 -14 -12 -10 -7 -6 -5 -5 -5 -4 -3 -2 -1 -1 -0 0 1 2 3 5
-13 -13 -13 -14 -14 -14 -14 -14 -14 -14 -14 -12 -12 -11 -11 -11 -9 -7 -5 -5 -5 -4 -2 -2 -2 -1 -1 -1 -1 1 2 4
-12 -12 -12 -13 -14 -14 -15 -14 -14 -14 -14 -13 -12 -11 -10 -9 -10 -9 -6 -5 -5 -4 -3 -3 -2 -3 -2 -1 -0 0 1 2
-11 -11 -12 -13 -14 -14 -14 -15 -15 -15 -14 -13 -11 -10 -9 -9 -8 -7 -5 -5 -5 -4 -4 -4 -5 -4 -3 -2 -0 0 1 2

GFSFLT2_850_dewp_171.txt.gz
Dewpoint
14 14 13 13 13 13 13 13 12 12 11 11 11 10 10 10 10 11 10 10 10 10 10 9 9 8 7 7 7 6 7 10
13 13 12 13 13 13 12 13 13 13 12 12 12 11 10 11 12 12 11 11 10 10 10 10 10 9 9 7 7 7 6 9
11 11 10 10 9 9 10 10 12 12 12 12 12 12 12 11 11 11 10 10 10 10 10 10 10 10 9 10 10 8 11 10
7 7 6 2 -2 -3 -2 -1 0 0 2 5 8 10 10 10 11 11 11 11 11 11 10 11 10 11 12 11 11 11 11 10
-7 -9 -12 -16 -20 -21 -20 -20 -21 -21 -22 -22 -22 -17 -17 -9 1 4 9 8 8 10 11 12 12 12 11 12 12 12 10 9
-15 -19 -22 -23 -21 -20 -20 -19 -21 -20 -21 -21 -22 -23 -24 -25 -17 -6 2 4 4 5 6 9 12 12 12 12 11 12 11 10
-20 -21 -20 -20 -20 -19 -20 -19 -20 -21 -22 -22 -23 -24 -25 -26 -23 -6 -2 -2 -1 0 4 6 7 9 12 12 12 12 13 11
-19 -20 -20 -19 -19 -19 -19 -20 -20 -21 -21 -23 -24 -24 -25 -25 -18 -8 -1 -10 -6 -5 2 3 4 5 3 7 12 13 12 12
-19 -19 -19 -19 -19 -19 -19 -21 -19 -19 -19 -21 -23 -23 -22 -21 -16 -8 -5 -16 -6 -2 -3 1 1 1 1 2 0 11 12 12
-16 -17 -18 -18 -19 -19 -18 -19 -11 -11 -12 -15 -18 -18 -18 -17 -8 -4 -14 -11 -1 1 1 1 -0 -4 -1 -1 0 0 5 12
-15 -17 -18 -18 -19 -16 -10 -11 -7 -5 -6 -7 -14 -14 -15 -15 -3 -5 -11 -2 0 0 -1 1 1 0 -0 -1 -2 -1 -1 -1
-14 -16 -18 -17 -17 -10 -4 -4 -4 -3 -5 -11 -14 -13 -14 -14 -3 -6 -6 -4 -1 -2 -3 -5 -2 1 0 -0 -3 -6 -13 -13
-14 -16 -17 -14 -12 -10 -5 -4 -4 -3 -4 -9 -13 -15 -15 -13 -5 -3 -3 -2 -3 -1 -0 -0 -2 0 0 -1 -4 -6 -1 0
-9 -11 -17 -16 -7 -8 -11 -6 -4 -4 -4 -3 -3 -7 -9 -4 -3 -3 -5 -5 -2 -1 -1 -0 -1 -0 1 1 -1 -1 -3 0
-6 -8 -14 -16 -15 -7 -7 -5 -6 -5 -5 -4 -4 -4 -7 -4 -3 -2 -1 -1 -2 -5 -3 -3 -2 -3 -1 -0 0 -0 0 -1
-6 -10 -11 -13 -15 -10 -12 -6 -6 -5 -5 -5 -6 -3 -3 -2 -2 -2 -2 -2 -4 -4 -4 -3 -2 -2 -2 -1 -1 -1 -0 -0
-5 -6 -6 -11 -13 -14 -11 -11 -7 -6 -5 -4 -4 -4 -3 -3 -2 -3 -2 -2 -3 -3 -4 -3 -2 -3 -3 -2 -2 -1 -1 -0
-4 -5 -5 -7 -9 -13 -14 -12 -9 -5 -5 -5 -5 -4 -4 -4 -3 -3 -3 -3 -4 -5 -4 -3 -3 -4 -3 -4 -3 -3 -3 -2
-4 -5 -5 -5 -8 -9 -8 -6 -6 -5 -5 -5 -4 -4 -4 -4 -4 -4 -4 -4 -5 -4 -4 -4 -4 -4 -5 -4 -4 -4 -4 -4
-5 -5 -5 -5 -5 -5 -5 -6 -6 -6 -5 -5 -5 -5 -5 -4 -4 -5 -5 -4 -5 -5 -5 -5 -5 -5 -5 -6 -5 -5 -5 -5